Time,TemperatureF,DewpointF,PressureIn,WindDirection,WindDirectionDegrees,WindSpeedMPH,WindSpeedGustMPH,Humidity,HourlyPrecipIn,Conditions,Clouds,dailyrainin,SolarRadiationWatts/m^2,SoftwareType,DateUTC
2013-03-06 00:01:00,20.0,6.0,-100.00,South,182,8.0,24.0,54,0.00,,,0.09,0.700000,,2013-03-06 09:01:00,
2013-03-06 00:12:00,20.0,6.0,-100.00,South,182,8.0,24.0,54,0.00,,,0.09,0.700000,,2013-03-06 09:12:00,
2013-03-06 00:21:00,20.0,6.0,-100.00,South,182,8.0,24.0,54,0.00,,,0.09,0.700000,,2013-03-06 09:21:00,
2013-03-06 00:31:00,20.0,6.0,-100.00,South,182,8.0,24.0,54,0.00,,,0.09,0.700000,,2013-03-06 09:31:00,
2013-03-06 00:41:00,20.0,6.0,-100.00,South,182,8.0,24.0,54,0.00,,,0.09,0.700000,,2013-03-06 09:41:00,
2013-03-06 01:01:00,16.0,14.0,-100.00,WNW,293,5.0,17.0,89,0.00,,,0.09,0.700000,,2013-03-06 10:01:00,
2013-03-06 01:11:00,16.0,14.0,-100.00,WNW,293,5.0,17.0,89,0.00,,,0.09,0.700000,,2013-03-06 10:11:00,
2013-03-06 01:21:00,16.0,14.0,-100.00,WNW,293,5.0,17.0,89,0.00,,,0.09,0.700000,,2013-03-06 10:21:00,
2013-03-06 01:31:00,16.0,14.0,-100.00,WNW,293,5.0,17.0,89,0.00,,,0.09,0.700000,,2013-03-06 10:31:00,
2013-03-06 01:41:00,16.0,14.0,-100.00,WNW,293,5.0,17.0,89,0.00,,,0.09,0.700000,,2013-03-06 10:41:00,
2013-03-06 02:02:00,18.0,10.0,-100.00,South,170,7.0,11.0,69,0.00,,,0.09,0.700000,,2013-03-06 11:02:00,
2013-03-06 02:11:00,18.0,10.0,-100.00,South,170,7.0,11.0,69,0.00,,,0.09,0.700000,,2013-03-06 11:11:00,
2013-03-06 02:22:00,18.0,10.0,-100.00,South,170,7.0,11.0,69,0.00,,,0.09,0.700000,,2013-03-06 11:22:00,
2013-03-06 02:31:00,18.0,10.0,-100.00,South,170,7.0,11.0,69,0.00,,,0.09,0.700000,,2013-03-06 11:31:00,
2013-03-06 02:42:00,18.0,10.0,-100.00,South,170,7.0,11.0,69,0.00,,,0.09,0.700000,,2013-03-06 11:42:00,
2013-03-06 03:01:00,19.0,13.0,-100.00,SE,145,10.0,11.0,77,0.00,,,0.09,0.700000,,2013-03-06 12:01:00,
2013-03-06 03:11:00,19.0,13.0,-100.00,SE,145,10.0,11.0,77,0.00,,,0.09,0.700000,,2013-03-06 12:11:00,
2013-03-06 03:21:00,19.0,13.0,-100.00,SE,145,10.0,11.0,77,0.00,,,0.09,0.700000,,2013-03-06 12:21:00,
2013-03-06 03:32:00,19.0,13.0,-100.00,SE,145,10.0,11.0,77,0.00,,,0.09,0.700000,,2013-03-06 12:32:00,
2013-03-06 03:42:00,19.0,13.0,-100.00,SE,145,10.0,11.0,77,0.00,,,0.09,0.700000,,2013-03-06 12:42:00,
2013-03-06 04:02:00,20.0,16.0,-100.00,SE,141,11.0,19.0,85,0.00,,,0.09,0.700000,,2013-03-06 13:02:00,
2013-03-06 04:11:00,20.0,16.0,-100.00,SE,141,11.0,19.0,85,0.00,,,0.09,0.700000,,2013-03-06 13:11:00,
2013-03-06 04:21:00,20.0,16.0,-100.00,SE,141,11.0,19.0,85,0.00,,,0.09,0.700000,,2013-03-06 13:21:00,
2013-03-06 04:32:00,20.0,16.0,-100.00,SE,141,11.0,19.0,85,0.00,,,0.09,0.700000,,2013-03-06 13:32:00,
2013-03-06 04:42:00,20.0,16.0,-100.00,SE,141,11.0,19.0,85,0.00,,,0.09,0.700000,,2013-03-06 13:42:00,
2013-03-06 05:01:00,21.0,17.0,-100.00,SSE,147,13.0,19.0,85,0.00,,,0.09,0.700000,,2013-03-06 14:01:00,
2013-03-06 05:11:00,21.0,17.0,-100.00,SSE,147,13.0,19.0,85,0.00,,,0.09,0.700000,,2013-03-06 14:11:00,
2013-03-06 05:21:00,21.0,17.0,-100.00,SSE,147,13.0,19.0,85,0.00,,,0.09,0.700000,,2013-03-06 14:21:00,
2013-03-06 05:32:00,21.0,17.0,-100.00,SSE,147,13.0,19.0,85,0.00,,,0.09,0.700000,,2013-03-06 14:32:00,
2013-03-06 05:41:00,21.0,17.0,-100.00,SSE,147,13.0,19.0,85,0.00,,,0.09,0.700000,,2013-03-06 14:41:00,
2013-03-06 06:01:00,20.0,17.0,-100.00,SSE,165,11.0,25.0,86,0.00,,,0.09,0.700000,,2013-03-06 15:01:00,
2013-03-06 06:11:00,20.0,17.0,-100.00,SSE,165,11.0,25.0,86,0.00,,,0.09,0.700000,,2013-03-06 15:11:00,
2013-03-06 06:21:00,20.0,17.0,-100.00,SSE,165,11.0,25.0,86,0.00,,,0.09,0.700000,,2013-03-06 15:21:00,
2013-03-06 06:32:00,20.0,17.0,-100.00,SSE,165,11.0,25.0,86,0.00,,,0.09,0.700000,,2013-03-06 15:32:00,
2013-03-06 06:41:00,20.0,17.0,-100.00,SSE,165,11.0,25.0,86,0.00,,,0.09,0.700000,,2013-03-06 15:41:00,
2013-03-06 07:01:00,21.0,17.0,-100.00,SSE,150,22.0,24.0,86,0.00,,,0.09,0.700000,,2013-03-06 16:01:00,
2013-03-06 07:11:00,21.0,17.0,-100.00,SSE,150,22.0,24.0,86,0.00,,,0.09,0.700000,,2013-03-06 16:11:00,
2013-03-06 07:21:00,21.0,17.0,-100.00,SSE,150,22.0,24.0,86,0.00,,,0.09,0.700000,,2013-03-06 16:21:00,
2013-03-06 07:32:00,21.0,17.0,-100.00,SSE,150,22.0,24.0,86,0.00,,,0.09,0.700000,,2013-03-06 16:32:00,
2013-03-06 07:41:00,21.0,17.0,-100.00,SSE,150,22.0,24.0,86,0.00,,,0.09,0.700000,,2013-03-06 16:41:00,
2013-03-06 08:01:00,20.0,17.0,-100.00,WSW,258,6.0,32.0,90,0.00,,,0.09,1.300000,,2013-03-06 17:01:00,
2013-03-06 08:11:00,20.0,17.0,-100.00,WSW,258,6.0,32.0,90,0.00,,,0.09,1.300000,,2013-03-06 17:11:00,
2013-03-06 08:21:00,20.0,17.0,-100.00,WSW,258,6.0,32.0,90,0.00,,,0.09,1.300000,,2013-03-06 17:21:00,
2013-03-06 08:32:00,20.0,17.0,-100.00,WSW,258,6.0,32.0,90,0.00,,,0.09,1.300000,,2013-03-06 17:32:00,
2013-03-06 08:41:00,20.0,17.0,-100.00,WSW,258,6.0,32.0,90,0.00,,,0.09,1.300000,,2013-03-06 17:41:00,
2013-03-06 09:02:00,20.0,18.0,-100.00,SSE,154,18.0,31.0,90,0.00,,,0.09,30.400000,,2013-03-06 18:02:00,
2013-03-06 09:28:00,20.0,18.0,-100.00,SSE,154,18.0,31.0,90,0.00,,,0.09,30.400000,,2013-03-06 18:28:00,
2013-03-06 09:42:00,20.0,18.0,-100.00,SSE,154,18.0,31.0,90,0.00,,,0.09,30.400000,,2013-03-06 18:42:00,
2013-03-06 10:02:00,21.0,18.0,-100.00,SE,145,22.0,28.0,87,0.00,,,0.09,112.000000,,2013-03-06 19:02:00,
2013-03-06 10:11:00,21.0,18.0,-100.00,SE,145,22.0,28.0,87,0.00,,,0.09,112.000000,,2013-03-06 19:11:00,
2013-03-06 10:21:00,21.0,18.0,-100.00,SE,145,22.0,28.0,87,0.00,,,0.09,112.000000,,2013-03-06 19:21:00,
2013-03-06 10:32:00,21.0,18.0,-100.00,SE,145,22.0,28.0,87,0.00,,,0.09,112.000000,,2013-03-06 19:32:00,
2013-03-06 10:42:00,21.0,18.0,-100.00,SE,145,22.0,28.0,87,0.00,,,0.09,112.000000,,2013-03-06 19:42:00,
2013-03-06 11:11:00,22.0,19.0,-100.00,SSE,148,23.0,30.0,88,0.00,,,0.09,188.800003,,2013-03-06 20:11:00,
2013-03-06 11:22:00,22.0,19.0,-100.00,SSE,148,23.0,30.0,88,0.00,,,0.09,188.800003,,2013-03-06 20:22:00,
2013-03-06 11:32:00,22.0,19.0,-100.00,SSE,148,23.0,30.0,88,0.00,,,0.09,188.800003,,2013-03-06 20:32:00,
2013-03-06 11:42:00,22.0,19.0,-100.00,SSE,148,23.0,30.0,88,0.00,,,0.09,188.800003,,2013-03-06 20:42:00,
2013-03-06 12:02:00,23.0,19.0,-100.00,SSE,149,21.0,32.0,84,0.00,,,0.09,279.399994,,2013-03-06 21:02:00,
2013-03-06 12:11:00,23.0,19.0,-100.00,SSE,149,21.0,32.0,84,0.00,,,0.09,279.399994,,2013-03-06 21:11:00,
2013-03-06 12:22:00,23.0,19.0,-100.00,SSE,149,21.0,32.0,84,0.00,,,0.09,279.399994,,2013-03-06 21:22:00,
2013-03-06 12:32:00,23.0,19.0,-100.00,SSE,149,21.0,32.0,84,0.00,,,0.09,279.399994,,2013-03-06 21:32:00,
2013-03-06 12:42:00,23.0,19.0,-100.00,SSE,149,21.0,32.0,84,0.00,,,0.09,279.399994,,2013-03-06 21:42:00,
2013-03-06 13:01:00,24.0,20.0,-100.00,SSE,155,17.0,32.0,83,0.00,,,0.09,335.000000,,2013-03-06 22:01:00,
2013-03-06 13:11:00,24.0,20.0,-100.00,SSE,155,17.0,32.0,83,0.00,,,0.09,335.000000,,2013-03-06 22:11:00,
2013-03-06 13:21:00,24.0,20.0,-100.00,SSE,155,17.0,32.0,83,0.00,,,0.09,335.000000,,2013-03-06 22:21:00,
2013-03-06 13:32:00,24.0,20.0,-100.00,SSE,155,17.0,32.0,83,0.00,,,0.09,335.000000,,2013-03-06 22:32:00,
2013-03-06 13:41:00,24.0,20.0,-100.00,SSE,155,17.0,32.0,83,0.00,,,0.09,335.000000,,2013-03-06 22:41:00,
2013-03-06 14:01:00,22.0,20.0,-100.00,SE,146,24.0,32.0,89,0.00,,,0.09,329.399994,,2013-03-06 23:01:00,
2013-03-06 14:11:00,22.0,20.0,-100.00,SE,146,24.0,32.0,89,0.00,,,0.09,329.399994,,2013-03-06 23:11:00,
2013-03-06 14:21:00,22.0,20.0,-100.00,SE,146,24.0,32.0,89,0.00,,,0.09,329.399994,,2013-03-06 23:21:00,
2013-03-06 14:31:00,22.0,20.0,-100.00,SE,146,24.0,32.0,89,0.00,,,0.09,329.399994,,2013-03-06 23:31:00,
2013-03-06 14:41:00,22.0,20.0,-100.00,SE,146,24.0,32.0,89,0.00,,,0.09,329.399994,,2013-03-06 23:41:00,
2013-03-06 15:01:00,24.0,20.0,-100.00,SE,140,22.0,34.0,87,0.00,,,0.09,356.299988,,2013-03-07 00:01:00,
2013-03-06 15:11:00,24.0,20.0,-100.00,SE,140,22.0,34.0,87,0.00,,,0.09,356.299988,,2013-03-07 00:11:00,
2013-03-06 15:21:00,24.0,20.0,-100.00,SE,140,22.0,34.0,87,0.00,,,0.09,356.299988,,2013-03-07 00:21:00,
2013-03-06 15:32:00,24.0,20.0,-100.00,SE,140,22.0,34.0,87,0.00,,,0.09,356.299988,,2013-03-07 00:32:00,
2013-03-06 15:41:00,24.0,20.0,-100.00,SE,140,22.0,34.0,87,0.00,,,0.09,356.299988,,2013-03-07 00:41:00,
2013-03-06 16:01:00,24.0,20.0,-100.00,SE,138,19.0,34.0,86,0.00,,,0.09,305.600006,,2013-03-07 01:01:00,
2013-03-06 16:11:00,24.0,20.0,-100.00,SE,138,19.0,34.0,86,0.00,,,0.09,305.600006,,2013-03-07 01:11:00,
2013-03-06 16:21:00,24.0,20.0,-100.00,SE,138,19.0,34.0,86,0.00,,,0.09,305.600006,,2013-03-07 01:21:00,
2013-03-06 16:31:00,24.0,20.0,-100.00,SE,138,19.0,34.0,86,0.00,,,0.09,305.600006,,2013-03-07 01:31:00,
2013-03-06 16:41:00,24.0,20.0,-100.00,SE,138,19.0,34.0,86,0.00,,,0.09,305.600006,,2013-03-07 01:41:00,
2013-03-06 17:01:00,22.0,19.0,-100.00,SSE,147,25.0,33.0,88,0.00,,,0.03,182.399994,,2013-03-07 02:01:00,
2013-03-06 17:11:00,22.0,19.0,-100.00,SSE,147,25.0,33.0,88,0.00,,,0.03,182.399994,,2013-03-07 02:11:00,
2013-03-06 17:21:00,22.0,19.0,-100.00,SSE,147,25.0,33.0,88,0.00,,,0.03,182.399994,,2013-03-07 02:21:00,
2013-03-06 17:31:00,22.0,19.0,-100.00,SSE,147,25.0,33.0,88,0.00,,,0.03,182.399994,,2013-03-07 02:31:00,
2013-03-06 17:41:00,22.0,19.0,-100.00,SSE,147,25.0,33.0,88,0.00,,,0.03,182.399994,,2013-03-07 02:41:00,
2013-03-06 18:01:00,22.0,20.0,-100.00,SE,140,22.0,33.0,91,0.00,,,0.00,85.099998,,2013-03-07 03:01:00,
2013-03-06 18:11:00,22.0,20.0,-100.00,SE,140,22.0,33.0,91,0.00,,,0.00,85.099998,,2013-03-07 03:11:00,
2013-03-06 18:21:00,22.0,20.0,-100.00,SE,140,22.0,33.0,91,0.00,,,0.00,85.099998,,2013-03-07 03:21:00,
2013-03-06 18:31:00,22.0,20.0,-100.00,SE,140,22.0,33.0,91,0.00,,,0.00,85.099998,,2013-03-07 03:31:00,
2013-03-06 18:41:00,22.0,20.0,-100.00,SE,140,22.0,33.0,91,0.00,,,0.00,85.099998,,2013-03-07 03:41:00,
2013-03-06 19:01:00,22.0,20.0,-100.00,SE,139,23.0,41.0,93,0.00,,,0.00,16.500000,,2013-03-07 04:01:00,
2013-03-06 19:11:00,22.0,20.0,-100.00,SE,139,23.0,41.0,93,0.00,,,0.00,16.500000,,2013-03-07 04:11:00,
2013-03-06 19:21:00,22.0,20.0,-100.00,SE,139,23.0,41.0,93,0.00,,,0.00,16.500000,,2013-03-07 04:21:00,
2013-03-06 19:31:00,22.0,20.0,-100.00,SE,139,23.0,41.0,93,0.00,,,0.00,16.500000,,2013-03-07 04:31:00,
2013-03-06 19:41:00,22.0,20.0,-100.00,SE,139,23.0,41.0,93,0.00,,,0.00,16.500000,,2013-03-07 04:41:00,
2013-03-06 20:01:00,22.0,20.0,-100.00,ESE,114,16.0,36.0,93,0.00,,,0.00,1.000000,,2013-03-07 05:01:00,
2013-03-06 20:12:00,22.0,20.0,-100.00,ESE,114,16.0,36.0,93,0.00,,,0.00,1.000000,,2013-03-07 05:12:00,
2013-03-06 20:22:00,22.0,20.0,-100.00,ESE,114,16.0,36.0,93,0.00,,,0.00,1.000000,,2013-03-07 05:22:00,
2013-03-06 20:31:00,22.0,20.0,-100.00,ESE,114,16.0,36.0,93,0.00,,,0.00,1.000000,,2013-03-07 05:31:00,
2013-03-06 20:41:00,22.0,20.0,-100.00,ESE,114,16.0,36.0,93,0.00,,,0.00,1.000000,,2013-03-07 05:41:00,